THOR ABLESTAR DEB, 3744

Orbit data source: Space-Track

THOR ABLESTAR DEB, 3744 is space debris in LEO originally from a launch on Thu, 29 Jun 1961 UTC launched from the Air Force Eastern Test Range (AFETR). Debris objects in space refer to the collection of defunct objects orbiting the Earth. Examples of debris include non-operational satellites, rocket bodies, and fragments generated from explosions, collisions, or faulty payload assembly.

Loading next visibility...
Identifier
3744, 1961-015JC
Orbit
LEO
Country
Flag of USUS
Related business
Manufacturer
Unknown
Mission
Spacecraft
Bus & Motor
Unknown
Mass
Unknown
Launch date (UTC)
1961-06-29 (64 years ago)
Launch vehicle
Unknown
Launch site
Air Force Eastern Test Range (AFETR)
Object type
Payload
Rocket body
Debris
Shape & HBR
Unknown shape, 0.1 m
Radar Cross Section
Small (<0.1 m²)

Expand to show TLE details & history
Last TLE update: 19 hours ago

TLE from 19 hours ago
0 THOR ABLESTAR DEB
1 03744U 61015JC  25346.70045051  .00003383  00000-0  21661-2 0  9998
2 03744  66.9771 213.2063 0129044 245.3827 113.3771 14.00488719854400
Epoch: 2025-12-12T16:48Z
TLE epoch observation values (Epoch: 2025-12-12T16:48:38.924Z)
Latitude
0.00005°
Longitude
-120.59417°
Altitude
932.444 km
Speed
7.367 km/s
True Right ascension
14h 12m 49s
True Declination
0° 00' 00"
Sunlit
Object was in daylight at epoch
Visualization orbit readout
Latitude
Unknown
Longitude
Unknown
Altitude
Unknown
Speed
Unknown
Apparent Right ascension
Unknown
Apparent Declination
Unknown
Sunlit
N/A
Visualization observer readout
Local Sidereal Time
10:17:01
Azimuth
Unknown
Elevation
Unknown
Doppler factor
Unknown
Orbital elements
Apogee altitude
984.266 km
Perigee altitude
796.672 km
Semi-major axis
7,268.606 km
Eccentricity
0.0129
Inclination
66.9771°
RAAN
213.2063°
Arg. of periapsis
245.3827°
True anomaly
114.72569°
Mean anomaly
113.3771°
Eccentric anomaly
114.05227°
Mean motion
3.50241 °/min
Orbital period
102.79 mins
BSTAR
0.0021661
Loading maneuver chart data...
Computing Atmospheric mass density...

Documentation

Showing up to 5 results
|